Location: ?astrovice
(49.6513°N, 14.9287°E)
Time: 11:12:24
(UTC+00:00)

Cosmos 2082 Rocket - Pass Details

Date: 09 April 2020
Orbit: 831 x 855 km, 71.0° (Epoch: 24 May)

Event Time Altitude Azimuth Distance (km) Brightness Sun altitude
Exits shadow 20:34:28 30° 73° (ENE) 1,468 3.2 -24.0°
Drops below altitude 10° 20:37:56 10° 42° (NE) 2,470 4.7 -24.4°
Sets 20:40:34 0° 35° (NE) 3,413 5.6 -24.7°
